iso_date,epoch_date,Year,Hour,Min,DOY,POS_DOY,Lat,Lon,BP,Ts,Ta,has_bp,has_ts,has_ta,BuoyID,Buoy_Type,Buoy_Owner,Logistics,Hemisphere
2017-07-04T07:59:31Z,1499155171,2017,8,0,185.333,185.333,57.9954,-166.3672,1024.0,9.47,-999.0,yes,yes,no,300234064824380,BD2GI,AOML,NORSEMAN_II,North
2017-07-04T09:00:00Z,1499158800,2017,9,0,185.375,185.375,57.9928,-166.3742,1024.4,9.4,-999.0,yes,yes,no,300234064824380,BD2GI,AOML,NORSEMAN_II,North
2017-07-04T10:00:28Z,1499162429,2017,10,0,185.417,185.417,57.9936,-166.3778,1024.5,9.36,-999.0,yes,yes,no,300234064824380,BD2GI,AOML,NORSEMAN_II,North
2017-07-04T10:59:31Z,1499165971,2017,11,0,185.458,185.458,57.9966,-166.3766,1024.8,9.37,-999.0,yes,yes,no,300234064824380,BD2GI,AOML,NORSEMAN_II,North
2017-07-04T12:00:00Z,1499169600,2017,12,0,185.5,185.5,58.0008,-166.3708,1024.6,9.35,-999.0,yes,yes,no,300234064824380,BD2GI,AOML,NORSEMAN_II,North
2017-07-04T13:00:28Z,1499173229,2017,13,0,185.542,185.542,58.0052,-166.3612,1025.0,9.35,-999.0,yes,yes,no,300234064824380,BD2GI,AOML,NORSEMAN_II,North
2017-07-04T13:59:31Z,1499176771,2017,14,0,185.583,185.583,58.0086,-166.3498,1024.9,9.32,-999.0,yes,yes,no,300234064824380,BD2GI,AOML,NORSEMAN_II,North
2017-07-04T15:00:00Z,1499180400,2017,15,0,185.625,185.625,58.0096,-166.339,1025.1,9.3,-999.0,yes,yes,no,300234064824380,BD2GI,AOML,NORSEMAN_II,North
2017-07-04T16:00:28Z,1499184029,2017,16,0,185.667,185.667,58.0074,-166.3316,1025.0,9.27,-999.0,yes,yes,no,300234064824380,BD2GI,AOML,NORSEMAN_II,North
2017-07-04T16:59:31Z,1499187571,2017,17,0,185.708,185.708,58.0026,-166.3302,1025.2,9.26,-999.0,yes,yes,no,300234064824380,BD2GI,AOML,NORSEMAN_II,North
2017-07-04T18:00:00Z,1499191200,2017,18,0,185.75,185.75,57.9964,-166.3362,1025.2,9.26,-999.0,yes,yes,no,300234064824380,BD2GI,AOML,NORSEMAN_II,North
2017-07-04T19:00:28Z,1499194829,2017,19,0,185.792,185.792,57.9908,-166.349,1025.3,9.27,-999.0,yes,yes,no,300234064824380,BD2GI,AOML,NORSEMAN_II,North
2017-07-04T19:59:31Z,1499198371,2017,20,0,185.833,185.833,57.987,-166.367,1025.4,9.27,-999.0,yes,yes,no,300234064824380,BD2GI,AOML,NORSEMAN_II,North
2017-07-04T21:00:00Z,1499202000,2017,21,0,185.875,185.875,57.9864,-166.386,1025.5,9.28,-999.0,yes,yes,no,300234064824380,BD2GI,AOML,NORSEMAN_II,North
2017-07-04T22:00:28Z,1499205629,2017,22,0,185.917,185.917,57.989,-166.4028,1025.5,9.29,-999.0,yes,yes,no,300234064824380,BD2GI,AOML,NORSEMAN_II,North
2017-07-04T22:59:31Z,1499209171,2017,23,0,185.958,185.958,57.9946,-166.4142,1025.2,9.3,-999.0,yes,yes,no,300234064824380,BD2GI,AOML,NORSEMAN_II,North
2017-07-05T00:00:00Z,1499212800,2017,0,0,186.0,186.0,58.0016,-166.4186,1024.9,9.29,-999.0,yes,yes,no,300234064824380,BD2GI,AOML,NORSEMAN_II,North
2017-07-05T01:00:28Z,1499216429,2017,1,0,186.042,186.042,58.0086,-166.4166,1024.5,9.28,-999.0,yes,yes,no,300234064824380,BD2GI,AOML,NORSEMAN_II,North
2017-07-05T01:59:31Z,1499219971,2017,2,0,186.083,186.083,58.0142,-166.4076,1024.0,9.3,-999.0,yes,yes,no,300234064824380,BD2GI,AOML,NORSEMAN_II,North
2017-07-05T03:00:00Z,1499223600,2017,3,0,186.125,186.125,58.0168,-166.3946,1023.7,9.28,-999.0,yes,yes,no,300234064824380,BD2GI,AOML,NORSEMAN_II,North
2017-07-05T04:00:28Z,1499227229,2017,4,0,186.167,186.167,58.015,-166.3798,1023.3,9.2,-999.0,yes,yes,no,300234064824380,BD2GI,AOML,NORSEMAN_II,North
2017-07-05T04:59:31Z,1499230771,2017,5,0,186.208,186.208,58.0094,-166.3672,1022.9,9.17,-999.0,yes,yes,no,300234064824380,BD2GI,AOML,NORSEMAN_II,North
2017-07-05T06:00:00Z,1499234400,2017,6,0,186.25,186.25,58.001,-166.3594,1022.6,9.13,-999.0,yes,yes,no,300234064824380,BD2GI,AOML,NORSEMAN_II,North
2017-07-05T07:00:28Z,1499238029,2017,7,0,186.292,186.292,57.9918,-166.3568,1022.4,9.07,-999.0,yes,yes,no,300234064824380,BD2GI,AOML,NORSEMAN_II,North
2017-07-05T07:59:31Z,1499241571,2017,8,0,186.333,186.333,57.9844,-166.3586,1021.9,9.02,-999.0,yes,yes,no,300234064824380,BD2GI,AOML,NORSEMAN_II,North
2017-07-05T09:00:00Z,1499245200,2017,9,0,186.375,186.375,57.9792,-166.3628,1021.6,8.96,-999.0,yes,yes,no,300234064824380,BD2GI,AOML,NORSEMAN_II,North
2017-07-05T10:00:28Z,1499248829,2017,10,0,186.417,186.417,57.9772,-166.3662,1020.8,8.92,-999.0,yes,yes,no,300234064824380,BD2GI,AOML,NORSEMAN_II,North
2017-07-05T10:59:31Z,1499252371,2017,11,0,186.458,186.458,57.9782,-166.3662,1020.3,8.89,-999.0,yes,yes,no,300234064824380,BD2GI,AOML,NORSEMAN_II,North
2017-07-05T12:00:00Z,1499256000,2017,12,0,186.5,186.5,57.9816,-166.3618,1019.7,8.86,-999.0,yes,yes,no,300234064824380,BD2GI,AOML,NORSEMAN_II,North
2017-07-05T13:00:28Z,1499259629,2017,13,0,186.542,186.542,57.986,-166.3534,1019.1,8.84,-999.0,yes,yes,no,300234064824380,BD2GI,AOML,NORSEMAN_II,North
2017-07-05T13:59:31Z,1499263171,2017,14,0,186.583,186.583,57.9898,-166.3428,1018.6,8.81,-999.0,yes,yes,no,300234064824380,BD2GI,AOML,NORSEMAN_II,North
2017-07-05T15:00:00Z,1499266800,2017,15,0,186.625,186.625,57.9924,-166.3318,1017.9,8.8,-999.0,yes,yes,no,300234064824380,BD2GI,AOML,NORSEMAN_II,North
2017-07-05T16:00:28Z,1499270429,2017,16,0,186.667,186.667,57.9928,-166.3236,1017.3,8.8,-999.0,yes,yes,no,300234064824380,BD2GI,AOML,NORSEMAN_II,North
2017-07-05T16:59:31Z,1499273971,2017,17,0,186.708,186.708,57.9906,-166.3202,1016.5,8.79,-999.0,yes,yes,no,300234064824380,BD2GI,AOML,NORSEMAN_II,North
2017-07-05T18:00:00Z,1499277600,2017,18,0,186.75,186.75,57.9874,-166.3234,1015.8,8.75,-999.0,yes,yes,no,300234064824380,BD2GI,AOML,NORSEMAN_II,North
2017-07-05T19:00:28Z,1499281229,2017,19,0,186.792,186.792,57.984,-166.3322,1015.3,8.73,-999.0,yes,yes,no,300234064824380,BD2GI,AOML,NORSEMAN_II,North
2017-07-05T19:59:31Z,1499284771,2017,20,0,186.833,186.833,57.9812,-166.3464,1015.0,8.72,-999.0,yes,yes,no,300234064824380,BD2GI,AOML,NORSEMAN_II,North
2017-07-05T21:00:00Z,1499288400,2017,21,0,186.875,186.875,57.98,-166.3634,1014.8,8.71,-999.0,yes,yes,no,300234064824380,BD2GI,AOML,NORSEMAN_II,North
2017-07-05T22:00:28Z,1499292029,2017,22,0,186.917,186.917,57.9814,-166.3802,1014.2,8.73,-999.0,yes,yes,no,300234064824380,BD2GI,AOML,NORSEMAN_II,North
2017-07-05T22:59:31Z,1499295571,2017,23,0,186.958,186.958,57.9858,-166.393,1013.7,8.75,-999.0,yes,yes,no,300234064824380,BD2GI,AOML,NORSEMAN_II,North
2017-07-06T00:00:00Z,1499299200,2017,0,0,187.0,187.0,57.9926,-166.401,1013.3,8.73,-999.0,yes,yes,no,300234064824380,BD2GI,AOML,NORSEMAN_II,North
2017-07-06T01:00:28Z,1499302829,2017,1,0,187.042,187.042,57.9998,-166.4014,1012.8,8.74,-999.0,yes,yes,no,300234064824380,BD2GI,AOML,NORSEMAN_II,North
2017-07-06T01:59:31Z,1499306371,2017,2,0,187.083,187.083,58.006,-166.395,1012.4,8.72,-999.0,yes,yes,no,300234064824380,BD2GI,AOML,NORSEMAN_II,North
2017-07-06T03:00:00Z,1499310000,2017,3,0,187.125,187.125,58.0098,-166.3834,1011.9,8.71,-999.0,yes,yes,no,300234064824380,BD2GI,AOML,NORSEMAN_II,North
2017-07-06T04:00:28Z,1499313629,2017,4,0,187.167,187.167,58.0104,-166.3684,1011.4,8.69,-999.0,yes,yes,no,300234064824380,BD2GI,AOML,NORSEMAN_II,North
2017-07-06T04:59:31Z,1499317171,2017,5,0,187.208,187.208,58.0076,-166.3546,1011.2,8.69,-999.0,yes,yes,no,300234064824380,BD2GI,AOML,NORSEMAN_II,North
2017-07-06T06:00:00Z,1499320800,2017,6,0,187.25,187.25,58.0018,-166.3406,1010.9,8.66,-999.0,yes,yes,no,300234064824380,BD2GI,AOML,NORSEMAN_II,North
2017-07-06T07:00:28Z,1499324429,2017,7,0,187.292,187.292,57.9932,-166.3302,1011.1,8.65,-999.0,yes,yes,no,300234064824380,BD2GI,AOML,NORSEMAN_II,North
2017-07-06T07:59:31Z,1499327971,2017,8,0,187.333,187.333,57.985,-166.3262,1011.2,8.59,-999.0,yes,yes,no,300234064824380,BD2GI,AOML,NORSEMAN_II,North
2017-07-06T09:00:00Z,1499331600,2017,9,0,187.375,187.375,57.9782,-166.325,1011.1,8.57,-999.0,yes,yes,no,300234064824380,BD2GI,AOML,NORSEMAN_II,North
2017-07-06T10:00:28Z,1499335229,2017,10,0,187.417,187.417,57.9738,-166.3246,1011.4,8.52,-999.0,yes,yes,no,300234064824380,BD2GI,AOML,NORSEMAN_II,North
2017-07-06T10:59:31Z,1499338771,2017,11,0,187.458,187.458,57.9716,-166.3246,1011.4,8.5,-999.0,yes,yes,no,300234064824380,BD2GI,AOML,NORSEMAN_II,North
2017-07-06T12:00:00Z,1499342400,2017,12,0,187.5,187.5,57.97,-166.314,1011.5,8.46,-999.0,yes,yes,no,300234064824380,BD2GI,AOML,NORSEMAN_II,North
2017-07-06T13:00:28Z,1499346029,2017,13,0,187.542,187.542,57.9762,-166.3118,1011.4,8.45,-999.0,yes,yes,no,300234064824380,BD2GI,AOML,NORSEMAN_II,North
2017-07-06T13:59:31Z,1499349571,2017,14,0,187.583,187.583,57.98,-166.303,1011.4,8.43,-999.0,yes,yes,no,300234064824380,BD2GI,AOML,NORSEMAN_II,North
2017-07-06T15:00:00Z,1499353200,2017,15,0,187.625,187.625,57.9834,-166.2912,1011.4,8.41,-999.0,yes,yes,no,300234064824380,BD2GI,AOML,NORSEMAN_II,North
2017-07-06T16:00:28Z,1499356829,2017,16,0,187.667,187.667,57.9848,-166.2796,1011.5,8.4,-999.0,yes,yes,no,300234064824380,BD2GI,AOML,NORSEMAN_II,North
2017-07-06T16:59:31Z,1499360371,2017,17,0,187.708,187.708,57.9836,-166.2718,1011.6,8.39,-999.0,yes,yes,no,300234064824380,BD2GI,AOML,NORSEMAN_II,North
2017-07-06T18:00:00Z,1499364000,2017,18,0,187.75,187.75,57.9796,-166.2698,1011.9,8.39,-999.0,yes,yes,no,300234064824380,BD2GI,AOML,NORSEMAN_II,North
2017-07-06T19:00:28Z,1499367629,2017,19,0,187.792,187.792,57.975,-166.2754,1012.2,8.38,-999.0,yes,yes,no,300234064824380,BD2GI,AOML,NORSEMAN_II,North
2017-07-06T19:59:31Z,1499371171,2017,20,0,187.833,187.833,57.97,-166.2884,1012.5,8.38,-999.0,yes,yes,no,300234064824380,BD2GI,AOML,NORSEMAN_II,North
2017-07-06T21:00:00Z,1499374800,2017,21,0,187.875,187.875,57.9664,-166.3054,1012.9,8.37,-999.0,yes,yes,no,300234064824380,BD2GI,AOML,NORSEMAN_II,North
2017-07-06T22:00:28Z,1499378429,2017,22,0,187.917,187.917,57.9648,-166.3238,1013.0,8.39,-999.0,yes,yes,no,300234064824380,BD2GI,AOML,NORSEMAN_II,North
2017-07-06T22:59:31Z,1499381971,2017,23,0,187.958,187.958,57.9662,-166.342,1013.1,8.38,-999.0,yes,yes,no,300234064824380,BD2GI,AOML,NORSEMAN_II,North
2017-07-07T00:00:00Z,1499385600,2017,0,0,188.0,188.0,57.9708,-166.3556,1013.1,8.38,-999.0,yes,yes,no,300234064824380,BD2GI,AOML,NORSEMAN_II,North
2017-07-07T01:00:28Z,1499389229,2017,1,0,188.042,188.042,57.977,-166.3612,1012.9,8.39,-999.0,yes,yes,no,300234064824380,BD2GI,AOML,NORSEMAN_II,North
2017-07-07T01:59:31Z,1499392771,2017,2,0,188.083,188.083,57.9836,-166.3598,1012.7,8.38,-999.0,yes,yes,no,300234064824380,BD2GI,AOML,NORSEMAN_II,North
2017-07-07T03:00:00Z,1499396400,2017,3,0,188.125,188.125,57.9894,-166.3504,1012.7,8.37,-999.0,yes,yes,no,300234064824380,BD2GI,AOML,NORSEMAN_II,North
2017-07-07T04:00:28Z,1499400029,2017,4,0,188.167,188.167,57.9924,-166.335,1012.4,8.37,-999.0,yes,yes,no,300234064824380,BD2GI,AOML,NORSEMAN_II,North
2017-07-07T04:59:31Z,1499403571,2017,5,0,188.208,188.208,57.9914,-166.3174,1012.6,8.36,-999.0,yes,yes,no,300234064824380,BD2GI,AOML,NORSEMAN_II,North
2017-07-07T06:00:00Z,1499407200,2017,6,0,188.25,188.25,57.9862,-166.299,1012.8,8.34,-999.0,yes,yes,no,300234064824380,BD2GI,AOML,NORSEMAN_II,North
2017-07-07T07:00:28Z,1499410829,2017,7,0,188.292,188.292,57.9786,-166.2838,1013.0,8.34,-999.0,yes,yes,no,300234064824380,BD2GI,AOML,NORSEMAN_II,North
2017-07-07T07:59:31Z,1499414371,2017,8,0,188.333,188.333,57.9692,-166.2734,1013.5,8.33,-999.0,yes,yes,no,300234064824380,BD2GI,AOML,NORSEMAN_II,North
2017-07-07T09:00:00Z,1499418000,2017,9,0,188.375,188.375,57.9586,-166.267,1013.8,8.31,-999.0,yes,yes,no,300234064824380,BD2GI,AOML,NORSEMAN_II,North
2017-07-07T10:00:28Z,1499421629,2017,10,0,188.417,188.417,57.9498,-166.2642,1013.6,8.31,-999.0,yes,yes,no,300234064824380,BD2GI,AOML,NORSEMAN_II,North
2017-07-07T10:59:31Z,1499425171,2017,11,0,188.458,188.458,57.944,-166.2658,1013.5,8.3,-999.0,yes,yes,no,300234064824380,BD2GI,AOML,NORSEMAN_II,North
2017-07-07T12:00:00Z,1499428800,2017,12,0,188.5,188.5,57.942,-166.2672,1013.1,8.3,-999.0,yes,yes,no,300234064824380,BD2GI,AOML,NORSEMAN_II,North
2017-07-07T13:00:28Z,1499432429,2017,13,0,188.542,188.542,57.943,-166.2656,1013.0,8.3,-999.0,yes,yes,no,300234064824380,BD2GI,AOML,NORSEMAN_II,North
2017-07-07T13:59:31Z,1499435971,2017,14,0,188.583,188.583,57.9456,-166.2612,1012.6,8.29,-999.0,yes,yes,no,300234064824380,BD2GI,AOML,NORSEMAN_II,North
2017-07-07T15:00:00Z,1499439600,2017,15,0,188.625,188.625,57.949,-166.254,1012.4,8.29,-999.0,yes,yes,no,300234064824380,BD2GI,AOML,NORSEMAN_II,North
2017-07-07T16:00:28Z,1499443229,2017,16,0,188.667,188.667,57.9518,-166.2446,1012.4,8.29,-999.0,yes,yes,no,300234064824380,BD2GI,AOML,NORSEMAN_II,North
2017-07-07T16:59:31Z,1499446771,2017,17,0,188.708,188.708,57.9528,-166.2364,1012.5,8.29,-999.0,yes,yes,no,300234064824380,BD2GI,AOML,NORSEMAN_II,North
2017-07-07T18:00:00Z,1499450400,2017,18,0,188.75,188.75,57.9518,-166.2318,1012.5,8.29,-999.0,yes,yes,no,300234064824380,BD2GI,AOML,NORSEMAN_II,North
2017-07-07T19:00:28Z,1499454029,2017,19,0,188.792,188.792,57.949,-166.232,1012.3,8.29,-999.0,yes,yes,no,300234064824380,BD2GI,AOML,NORSEMAN_II,North
2017-07-07T19:59:31Z,1499457571,2017,20,0,188.833,188.833,57.9454,-166.2376,1012.3,8.29,-999.0,yes,yes,no,300234064824380,BD2GI,AOML,NORSEMAN_II,North
2017-07-07T21:00:00Z,1499461200,2017,21,0,188.875,188.875,57.9418,-166.248,1012.2,8.3,-999.0,yes,yes,no,300234064824380,BD2GI,AOML,NORSEMAN_II,North
2017-07-07T22:00:28Z,1499464829,2017,22,0,188.917,188.917,57.9386,-166.2602,1012.1,8.29,-999.0,yes,yes,no,300234064824380,BD2GI,AOML,NORSEMAN_II,North
2017-07-07T22:59:31Z,1499468371,2017,23,0,188.958,188.958,57.9372,-166.274,1012.1,8.3,-999.0,yes,yes,no,300234064824380,BD2GI,AOML,NORSEMAN_II,North
2017-07-08T00:00:00Z,1499472000,2017,0,0,189.0,189.0,57.938,-166.2874,1012.0,8.3,-999.0,yes,yes,no,300234064824380,BD2GI,AOML,NORSEMAN_II,North
2017-07-08T01:00:28Z,1499475629,2017,1,0,189.042,189.042,57.9414,-166.2982,1011.8,8.3,-999.0,yes,yes,no,300234064824380,BD2GI,AOML,NORSEMAN_II,North
2017-07-08T01:59:31Z,1499479171,2017,2,0,189.083,189.083,57.9466,-166.3028,1011.2,8.31,-999.0,yes,yes,no,300234064824380,BD2GI,AOML,NORSEMAN_II,North
2017-07-08T03:00:00Z,1499482800,2017,3,0,189.125,189.125,57.9526,-166.3,1011.1,8.31,-999.0,yes,yes,no,300234064824380,BD2GI,AOML,NORSEMAN_II,North
2017-07-08T04:00:28Z,1499486429,2017,4,0,189.167,189.167,57.9576,-166.29,1010.9,8.32,-999.0,yes,yes,no,300234064824380,BD2GI,AOML,NORSEMAN_II,North
2017-07-08T04:59:31Z,1499489971,2017,5,0,189.208,189.208,57.9598,-166.2738,1010.6,8.31,-999.0,yes,yes,no,300234064824380,BD2GI,AOML,NORSEMAN_II,North
2017-07-08T06:00:00Z,1499493600,2017,6,0,189.25,189.25,57.9578,-166.2524,1010.2,8.31,-999.0,yes,yes,no,300234064824380,BD2GI,AOML,NORSEMAN_II,North
2017-07-08T07:00:28Z,1499497229,2017,7,0,189.292,189.292,57.9514,-166.233,1010.1,8.3,-999.0,yes,yes,no,300234064824380,BD2GI,AOML,NORSEMAN_II,North
2017-07-08T07:59:31Z,1499500771,2017,8,0,189.333,189.333,57.9422,-166.218,1010.5,8.3,-999.0,yes,yes,no,300234064824380,BD2GI,AOML,NORSEMAN_II,North
2017-07-08T09:00:00Z,1499504400,2017,9,0,189.375,189.375,57.9326,-166.2096,1010.6,8.3,-999.0,yes,yes,no,300234064824380,BD2GI,AOML,NORSEMAN_II,North
2017-07-08T10:00:28Z,1499508029,2017,10,0,189.417,189.417,57.9236,-166.2066,1010.3,8.29,-999.0,yes,yes,no,300234064824380,BD2GI,AOML,NORSEMAN_II,North
2017-07-08T10:59:31Z,1499511571,2017,11,0,189.458,189.458,57.9166,-166.2068,1010.0,8.29,-999.0,yes,yes,no,300234064824380,BD2GI,AOML,NORSEMAN_II,North
2017-07-08T12:00:00Z,1499515200,2017,12,0,189.5,189.5,57.9134,-166.2092,1009.5,8.28,-999.0,yes,yes,no,300234064824380,BD2GI,AOML,NORSEMAN_II,North
2017-07-08T13:00:28Z,1499518829,2017,13,0,189.542,189.542,57.9138,-166.2116,1009.2,8.27,-999.0,yes,yes,no,300234064824380,BD2GI,AOML,NORSEMAN_II,North
2017-07-08T13:59:31Z,1499522371,2017,14,0,189.583,189.583,57.917,-166.2114,1008.7,8.27,-999.0,yes,yes,no,300234064824380,BD2GI,AOML,NORSEMAN_II,North
2017-07-08T15:00:00Z,1499526000,2017,15,0,189.625,189.625,57.9232,-166.2092,1008.4,8.26,-999.0,yes,yes,no,300234064824380,BD2GI,AOML,NORSEMAN_II,North
2017-07-08T16:00:28Z,1499529629,2017,16,0,189.667,189.667,57.9304,-166.2056,1008.1,8.26,-999.0,yes,yes,no,300234064824380,BD2GI,AOML,NORSEMAN_II,North
2017-07-08T16:59:31Z,1499533171,2017,17,0,189.708,189.708,57.937,-166.1994,1007.6,8.25,-999.0,yes,yes,no,300234064824380,BD2GI,AOML,NORSEMAN_II,North
2017-07-08T18:00:00Z,1499536800,2017,18,0,189.75,189.75,57.9412,-166.1924,1007.1,8.25,-999.0,yes,yes,no,300234064824380,BD2GI,AOML,NORSEMAN_II,North
2017-07-08T19:00:28Z,1499540429,2017,19,0,189.792,189.792,57.9428,-166.1908,1007.1,8.25,-999.0,yes,yes,no,300234064824380,BD2GI,AOML,NORSEMAN_II,North
2017-07-08T19:59:31Z,1499543971,2017,20,0,189.833,189.833,57.9426,-166.1966,1006.8,8.24,-999.0,yes,yes,no,300234064824380,BD2GI,AOML,NORSEMAN_II,North
2017-07-08T21:00:00Z,1499547600,2017,21,0,189.875,189.875,57.942,-166.209,1006.5,8.24,-999.0,yes,yes,no,300234064824380,BD2GI,AOML,NORSEMAN_II,North
2017-07-08T22:00:28Z,1499551229,2017,22,0,189.917,189.917,57.9416,-166.2264,1006.4,8.23,-999.0,yes,yes,no,300234064824380,BD2GI,AOML,NORSEMAN_II,North
2017-07-08T22:59:31Z,1499554771,2017,23,0,189.958,189.958,57.9422,-166.245,1005.9,8.23,-999.0,yes,yes,no,300234064824380,BD2GI,AOML,NORSEMAN_II,North
2017-07-09T00:00:00Z,1499558400,2017,0,0,190.0,190.0,57.9458,-166.2664,1005.4,8.22,-999.0,yes,yes,no,300234064824380,BD2GI,AOML,NORSEMAN_II,North
2017-07-09T01:00:28Z,1499562029,2017,1,0,190.042,190.042,57.9508,-166.284,1004.9,8.22,-999.0,yes,yes,no,300234064824380,BD2GI,AOML,NORSEMAN_II,North
2017-07-09T01:59:31Z,1499565571,2017,2,0,190.083,190.083,57.9594,-166.2996,1004.6,8.21,-999.0,yes,yes,no,300234064824380,BD2GI,AOML,NORSEMAN_II,North
2017-07-09T03:00:00Z,1499569200,2017,3,0,190.125,190.125,57.9698,-166.3084,1004.3,8.2,-999.0,yes,yes,no,300234064824380,BD2GI,AOML,NORSEMAN_II,North
2017-07-09T04:00:28Z,1499572829,2017,4,0,190.167,190.167,57.9806,-166.309,1003.9,8.19,-999.0,yes,yes,no,300234064824380,BD2GI,AOML,NORSEMAN_II,North
2017-07-09T04:59:31Z,1499576371,2017,5,0,190.208,190.208,57.9894,-166.3028,1003.6,8.17,-999.0,yes,yes,no,300234064824380,BD2GI,AOML,NORSEMAN_II,North
2017-07-09T06:00:00Z,1499580000,2017,6,0,190.25,190.25,57.9962,-166.2898,1003.4,8.16,-999.0,yes,yes,no,300234064824380,BD2GI,AOML,NORSEMAN_II,North
2017-07-09T07:00:28Z,1499583629,2017,7,0,190.292,190.292,57.9992,-166.273,1003.4,8.14,-999.0,yes,yes,no,300234064824380,BD2GI,AOML,NORSEMAN_II,North
2017-07-09T07:59:31Z,1499587171,2017,8,0,190.333,190.333,57.9978,-166.258,1003.6,8.14,-999.0,yes,yes,no,300234064824380,BD2GI,AOML,NORSEMAN_II,North
2017-07-09T09:00:00Z,1499590800,2017,9,0,190.375,190.375,57.9936,-166.246,1003.6,8.12,-999.0,yes,yes,no,300234064824380,BD2GI,AOML,NORSEMAN_II,North
2017-07-09T10:00:28Z,1499594429,2017,10,0,190.417,190.417,57.9868,-166.2372,1003.5,8.12,-999.0,yes,yes,no,300234064824380,BD2GI,AOML,NORSEMAN_II,North
2017-07-09T10:59:31Z,1499597971,2017,11,0,190.458,190.458,57.9794,-166.2344,1003.4,8.11,-999.0,yes,yes,no,300234064824380,BD2GI,AOML,NORSEMAN_II,North
2017-07-09T12:00:00Z,1499601600,2017,12,0,190.5,190.5,57.9738,-166.2378,1003.4,8.11,-999.0,yes,yes,no,300234064824380,BD2GI,AOML,NORSEMAN_II,North
2017-07-09T13:00:28Z,1499605229,2017,13,0,190.542,190.542,57.9712,-166.245,1003.1,8.11,-999.0,yes,yes,no,300234064824380,BD2GI,AOML,NORSEMAN_II,North
2017-07-09T13:59:31Z,1499608771,2017,14,0,190.583,190.583,57.9726,-166.253,1003.0,8.11,-999.0,yes,yes,no,300234064824380,BD2GI,AOML,NORSEMAN_II,North
2017-07-09T15:00:00Z,1499612400,2017,15,0,190.625,190.625,57.9768,-166.2608,1003.0,8.11,-999.0,yes,yes,no,300234064824380,BD2GI,AOML,NORSEMAN_II,North
2017-07-09T16:00:28Z,1499616029,2017,16,0,190.667,190.667,57.9844,-166.2658,1003.1,8.1,-999.0,yes,yes,no,300234064824380,BD2GI,AOML,NORSEMAN_II,North
2017-07-09T16:59:31Z,1499619571,2017,17,0,190.708,190.708,57.9918,-166.268,1003.2,8.1,-999.0,yes,yes,no,300234064824380,BD2GI,AOML,NORSEMAN_II,North
2017-07-09T18:00:00Z,1499623200,2017,18,0,190.75,190.75,57.9988,-166.2692,1003.4,8.11,-999.0,yes,yes,no,300234064824380,BD2GI,AOML,NORSEMAN_II,North
2017-07-09T19:00:28Z,1499626829,2017,19,0,190.792,190.792,58.0036,-166.2722,1003.8,8.12,-999.0,yes,yes,no,300234064824380,BD2GI,AOML,NORSEMAN_II,North
2017-07-09T19:59:31Z,1499630371,2017,20,0,190.833,190.833,58.0058,-166.2782,1004.2,8.13,-999.0,yes,yes,no,300234064824380,BD2GI,AOML,NORSEMAN_II,North
2017-07-09T21:00:00Z,1499634000,2017,21,0,190.875,190.875,58.0068,-166.288,1004.7,8.16,-999.0,yes,yes,no,300234064824380,BD2GI,AOML,NORSEMAN_II,North
2017-07-09T22:00:28Z,1499637629,2017,22,0,190.917,190.917,58.0072,-166.3028,1004.9,8.21,-999.0,yes,yes,no,300234064824380,BD2GI,AOML,NORSEMAN_II,North
2017-07-09T22:59:31Z,1499641171,2017,23,0,190.958,190.958,58.0076,-166.323,1005.0,8.27,-999.0,yes,yes,no,300234064824380,BD2GI,AOML,NORSEMAN_II,North
2017-07-10T00:00:00Z,1499644800,2017,0,0,191.0,191.0,58.009,-166.346,1005.3,8.34,-999.0,yes,yes,no,300234064824380,BD2GI,AOML,NORSEMAN_II,North
2017-07-10T01:00:28Z,1499648429,2017,1,0,191.042,191.042,58.0122,-166.3672,1005.6,8.39,-999.0,yes,yes,no,300234064824380,BD2GI,AOML,NORSEMAN_II,North
2017-07-10T01:59:31Z,1499651971,2017,2,0,191.083,191.083,58.017,-166.3828,1005.9,8.46,-999.0,yes,yes,no,300234064824380,BD2GI,AOML,NORSEMAN_II,North
2017-07-10T03:00:00Z,1499655600,2017,3,0,191.125,191.125,58.023,-166.3942,1006.1,8.57,-999.0,yes,yes,no,300234064824380,BD2GI,AOML,NORSEMAN_II,North
2017-07-10T04:00:28Z,1499659229,2017,4,0,191.167,191.167,58.0302,-166.3998,1006.3,8.6,-999.0,yes,yes,no,300234064824380,BD2GI,AOML,NORSEMAN_II,North
2017-07-10T04:59:31Z,1499662771,2017,5,0,191.208,191.208,58.037,-166.398,1006.6,8.6,-999.0,yes,yes,no,300234064824380,BD2GI,AOML,NORSEMAN_II,North
2017-07-10T06:00:00Z,1499666400,2017,6,0,191.25,191.25,58.0416,-166.3902,1006.9,8.61,-999.0,yes,yes,no,300234064824380,BD2GI,AOML,NORSEMAN_II,North
2017-07-10T07:00:28Z,1499670029,2017,7,0,191.292,191.292,58.0426,-166.3782,1007.3,8.59,-999.0,yes,yes,no,300234064824380,BD2GI,AOML,NORSEMAN_II,North
2017-07-10T07:59:31Z,1499673571,2017,8,0,191.333,191.333,58.04,-166.365,1007.8,8.57,-999.0,yes,yes,no,300234064824380,BD2GI,AOML,NORSEMAN_II,North
2017-07-10T09:00:00Z,1499677200,2017,9,0,191.375,191.375,58.0346,-166.354,1008.3,8.52,-999.0,yes,yes,no,300234064824380,BD2GI,AOML,NORSEMAN_II,North
2017-07-10T10:00:28Z,1499680829,2017,10,0,191.417,191.417,58.0266,-166.3474,1008.6,8.47,-999.0,yes,yes,no,300234064824380,BD2GI,AOML,NORSEMAN_II,North
2017-07-10T10:59:31Z,1499684371,2017,11,0,191.458,191.458,58.0184,-166.3454,1009.0,8.43,-999.0,yes,yes,no,300234064824380,BD2GI,AOML,NORSEMAN_II,North
2017-07-10T12:00:00Z,1499688000,2017,12,0,191.5,191.5,58.0116,-166.3474,1009.4,8.41,-999.0,yes,yes,no,300234064824380,BD2GI,AOML,NORSEMAN_II,North
2017-07-10T13:00:28Z,1499691629,2017,13,0,191.542,191.542,58.0068,-166.3508,1009.6,8.39,-999.0,yes,yes,no,300234064824380,BD2GI,AOML,NORSEMAN_II,North
2017-07-10T13:59:31Z,1499695171,2017,14,0,191.583,191.583,58.0048,-166.3548,1010.0,8.38,-999.0,yes,yes,no,300234064824380,BD2GI,AOML,NORSEMAN_II,North
2017-07-10T15:00:00Z,1499698800,2017,15,0,191.625,191.625,58.0058,-166.3584,1010.6,8.37,-999.0,yes,yes,no,300234064824380,BD2GI,AOML,NORSEMAN_II,North
2017-07-10T16:00:28Z,1499702429,2017,16,0,191.667,191.667,58.009,-166.3616,1011.1,8.36,-999.0,yes,yes,no,300234064824380,BD2GI,AOML,NORSEMAN_II,North
2017-07-10T16:59:31Z,1499705971,2017,17,0,191.708,191.708,58.014,-166.3622,1011.4,8.36,-999.0,yes,yes,no,300234064824380,BD2GI,AOML,NORSEMAN_II,North
2017-07-10T18:00:00Z,1499709600,2017,18,0,191.75,191.75,58.0188,-166.3606,1011.8,8.37,-999.0,yes,yes,no,300234064824380,BD2GI,AOML,NORSEMAN_II,North
2017-07-10T19:00:28Z,1499713229,2017,19,0,191.792,191.792,58.022,-166.3594,1012.2,8.39,-999.0,yes,yes,no,300234064824380,BD2GI,AOML,NORSEMAN_II,North
2017-07-10T19:59:31Z,1499716771,2017,20,0,191.833,191.833,58.0232,-166.361,1012.7,8.4,-999.0,yes,yes,no,300234064824380,BD2GI,AOML,NORSEMAN_II,North
2017-07-10T21:00:00Z,1499720400,2017,21,0,191.875,191.875,58.0232,-166.367,1012.7,8.41,-999.0,yes,yes,no,300234064824380,BD2GI,AOML,NORSEMAN_II,North
2017-07-10T22:00:28Z,1499724029,2017,22,0,191.917,191.917,58.022,-166.3784,1013.0,8.41,-999.0,yes,yes,no,300234064824380,BD2GI,AOML,NORSEMAN_II,North